Portada
METAR-TAF:

METAR-TAF

Aeroports :

Bombai, Índia

latitud: 19-05-53N, longitud: 072-50-02E, altitud: 4 m

Observació

L'informe es va fer fa 27 minuts, a les 12:30 UTC
Vent 4 kt del Oest/Nord-Oest
Temperatura 24°C
Humitat 89%
Pressió 1008 hPa
Visibilitat: 2000 m
Escasses núvols a una alçada de 1200 ft
Núvols disperses a una alçada de 1800 ft
Escasses núvols a una alçada de 2500 ft, Cumulus congestus.
Cel cobert a una alçada de 9000 ft
pluja

METAR: VAJJ 021230Z 30004KT 2000 -RA FEW012 SCT018 FEW025TCU OVC090 24/22 Q1008 NOSIG

Hora: 18:27 (12:57 UTC)


TAF: manca

Observacions i pronòstics meteorològics de més de 4000 aeroports (METAR i TAF).

Les estacions disponibles són els punts grocs i vermells al mapa.

Posi el ratolí al punt desitjat per veure el nom de l'estació.

Feu clic per veure les observacions i els pronòstics meteorològics.

Per canviar el mapa: feu clic els botons verds amb una creu de color negre per apropar; al botó verd amb un guió per allunyar la imatge; o en les fletxes verdes per a mapes adjacents.


METAR-TAF: